[[{"header":{"parameterUnit":"m.s-1","parameterCategory":1,"la1":30.2991,"la2":30.254,"lo1":-89.0895,"lo2":-89.0444,"dy":0.0017,"dx":0.0017,"nx":28,"ny":28,"refTime":"2024-08-06T03:00:00:Z","depth":0,"parameterNumber":2,"parameterNumberName":"U-component_of_WINDS"},"data":[0,0,0,0,0,0,0,0,0,0,0,0,0,0,0,0,0,0,0,0,0,0,0,0,0,0,0,0,0,0,0,0,0,0,0,0,0,0,0,0,0,0,0,0,0,0,0,0,0,0,0,0,0,0,0,0,0,0,0.7493,0.7494,0,0.7627,0.7629,0.763,0.7637,0.7636,0.7634,0.7633,0.7775,0.778,0.7785,0,0,0,0,0,0,0,0,0,0,0,0,0,0.7247,0.7251,0.7492,0.7494,0.7496,0.7627,0.7629,0.7631,0.7637,0.7636,0.7634,0.7632,0.7773,0.7779,0.7785,0,0,0,0,0,0,0,0,0,0,0,0,0,0.7365,0.7253,0.7492,0.7515,0.7518,0.7626,0.7629,0.7631,0.7638,0.7636,0.7633,0.7631,0.7771,0.7778,0.7786,0.7882,0,0,0.781,0.7814,0,0,0,0,0,0,0,0,0.7358,0.7374,0.751,0.7514,0.7518,0.7613,0.7594,0.7715,0.7638,0.7593,0.7633,0.763,0.7723,0.7735,0.7765,0.7889,0.7895,0.7811,0.7816,0.7819,0.7821,0,0,0,0,0,0,0,0.735,0.7368,0.7546,0.7512,0.7517,0.752,0.7534,0.7617,0.767,0.7596,0.7597,0.7613,0.7725,0.7758,0.7769,0.7897,0.7811,0.7818,0.7823,0.7826,0.8108,0.8111,0,0,0,0,0,0,0.7337,0.7361,0.7542,0.755,0.743,0.7527,0.7542,0.7585,0.7669,0.7679,0.7615,0.7613,0.7745,0.7759,0.7774,0.7893,0.7819,0.7826,0.7831,0.8106,0.8109,0.8112,0,0,0,0,0,0,0.7331,0.7353,0.7536,0.7456,0.7479,0.7533,0.7581,0.7589,0.7622,0.7682,0.7692,0.7638,0.7744,0.7763,0.7855,0.7898,0.783,0.7837,0.8102,0.8107,0.8111,0.8132,0,0,0,0,0,0,0.7324,0.7351,0.7386,0.7457,0.7484,0.7614,0.7583,0.7593,0.7635,0.7633,0.7707,0.7717,0.7744,0.7844,0.7863,0.7908,0.7843,0.8099,0.8104,0.8109,0.8128,0.8136,0.8144,0,0,0,0,0,0.7315,0.7387,0.7388,0.741,0.7529,0.7616,0.7632,0.766,0.7638,0.7675,0.7715,0.7715,0.789,0.7853,0.7875,0.7923,0.8096,0.8103,0.8109,0.8124,0.8135,0.8143,0,0,0,0,0,0,0.7322,0.7397,0.7399,0.7495,0.7549,0.7617,0.7665,0.767,0.7732,0.7729,0.7761,0.7778,0.7871,0.7906,0.7863,0.8021,0.7991,0.8002,0.7995,0.8005,0.8013,0.8004,0.785,0,0,0,0,0,0.7334,0.7397,0.746,0.7539,0.7566,0.7611,0.765,0.7667,0.7725,0.7748,0.7794,0.7852,0.792,0.7964,0.803,0.8132,0.815,0.8176,0.8184,0.819,0.82,0.8259,0.8272,0.8133,0.8133,0.8133,0,0,0.7361,0.741,0.7448,0.7542,0.7586,0.7653,0.763,0.7701,0.7752,0.7759,0.785,0.7886,0.7953,0.8051,0.8097,0.8083,0.8242,0.8198,0.8203,0.821,0.8267,0.828,0.8292,0.8137,0.8136,0.8136,0,0,0.7445,0.7487,0.7558,0.7603,0.7669,0.7699,0.7716,0.7784,0.7808,0.7899,0.7907,0.7968,0.8084,0.8132,0.8171,0.8274,0.8277,0.8294,0.8337,0.8394,0.8405,0.8415,0.8454,0.8467,0.8304,0.8304,0.8304,0,0.747,0.7569,0.7595,0.7666,0.7708,0.7717,0.7791,0.7834,0.7919,0.7949,0.7932,0.8079,0.8124,0.8235,0.826,0.8291,0.8314,0.8287,0.8401,0.8411,0.8421,0.8459,0.8473,0.8305,0.8305,0.8305,0.8305,0,0.7598,0.7667,0.7717,0.7798,0.7846,0.7918,0.7957,0.8003,0.8015,0.8047,0.8141,0.8196,0.8274,0.8301,0.8314,0.8414,0.8404,0.8394,0.8365,0.8436,0.8472,0.8486,0.8308,0.8307,0.8307,0.8306,0,0,0.769,0.7785,0.7803,0.7841,0.7915,0.797,0.8043,0.8119,0.8158,0.8217,0.8281,0.8379,0.8371,0.8416,0.8434,0.8484,0.8565,0.8468,0.847,0.8486,0.8682,0.869,0.8706,0.8567,0.857,0.8572,0.8677,0,0.7783,0.7913,0.7939,0.8052,0.8118,0.8127,0.8192,0.8245,0.8277,0.8339,0.8375,0.8445,0.8427,0.8454,0.8504,0.8544,0.8605,0.8537,0.8629,0.8632,0.8614,0.8725,0.8734,0.883,0.8691,0.8693,0.8695,0,0.7909,0.797,0.809,0.8157,0.8185,0.8243,0.8315,0.8373,0.8435,0.8455,0.8505,0.8519,0.8598,0.8563,0.8674,0.8628,0.8667,0.8693,0.8697,0.8708,0.8669,0.8741,0.8861,0.8876,0.8717,0.8715,0.8713,0,0.7967,0.8079,0.8165,0.8197,0.8277,0.8318,0.8353,0.8413,0.8457,0.852,0.855,0.8622,0.8662,0.8718,0.8752,0.8723,0.8861,0.8829,0.8882,0.8881,0.8912,0.891,0.9042,0.8934,0.8934,0.8933,0.8933,0,0.8069,0.8143,0.8192,0.8246,0.8329,0.8359,0.8441,0.8477,0.853,0.8592,0.8604,0.8663,0.8703,0.8767,0.8794,0.8883,0.8901,0.8921,0.8927,0.8921,0.8919,0.8948,0.8943,0.8937,0.8936,0.8936,0.8935,0,0.8148,0.8184,0.828,0.8347,0.8366,0.8425,0.8484,0.8537,0.8569,0.8648,0.8668,0.8719,0.8796,0.8834,0.893,0.8948,0.905,0.9051,0.9029,0.9032,0.9083,0.9079,0.9241,0.9265,0.9139,0.914,0.9141,0,0.8212,0.8268,0.8342,0.8384,0.842,0.8488,0.8533,0.8565,0.8612,0.8687,0.8732,0.8809,0.8873,0.8995,0.9042,0.9116,0.9121,0.9173,0.9132,0.9124,0.9124,0.9121,0.9128,0.918,0.9182,0.9183,0.9183,0,0.8322,0.8337,0.8401,0.8472,0.8525,0.8582,0.8639,0.8673,0.8714,0.8767,0.8845,0.8894,0.8992,0.9069,0.9147,0.9185,0.9193,0.9195,0.9212,0.9207,0.9192,0.9203,0.905,0.9192,0.9191,0.9191,0.919,0.919,0.8397,0.8449,0.8509,0.858,0.8626,0.8679,0.8733,0.8771,0.8836,0.8918,0.8933,0.9017,0.9079,0.9184,0.9225,0.9292,0.9281,0.9305,0.9311,0.9317,0.932,0.918,0.9306,0.9306,0.9306,0.9306,0.9306,0,0.851,0.8549,0.8614,0.8693,0.8749,0.8749,0.8812,0.886,0.8933,0.899,0.9052,0.9143,0.9218,0.9271,0.9348,0.9392,0.9397,0.9411,0.9409,0.9419,0.9325,0.9304,0.9406,0.9406,0.9406,0.9406,0.9406,0.9406,0.8575,0.8663,0.8685,0.8797,0.8836,0.8917,0.8954,0.9003,0.9049,0.915,0.9212,0.9245,0.9301,0.9383,0.9453,0.9467,0.9495,0.951,0.9524,0.9436,0.9425,0.9415,0.9395,0.9515,0.9515,0.9613,0.9613,0.9614]},{"header":{"parameterUnit":"m.s-1","parameterCategory":1,"la1":30.2991,"la2":30.254,"lo1":-89.0895,"lo2":-89.0444,"dy":0.0017,"dx":0.0017,"nx":28,"ny":28,"refTime":"2024-08-06T03:00:00:Z","depth":0,"parameterNumber":3,"parameterNumberName":"V-component_of_WINDS"},"data":[0,0,0,0,0,0,0,0,0,0,0,0,0,0,0,0,0,0,0,0,0,0,0,0,0,0,0,0,0,0,0,0,0,0,0,0,0,0,0,0,0,0,0,0,0,0,0,0,0,0,0,0,0,0,0,0,0,0,-0.3849,-0.3849,0,-0.3905,-0.3905,-0.3906,-0.4083,-0.4087,-0.4091,-0.4094,-0.4146,-0.4144,-0.4142,0,0,0,0,0,0,0,0,0,0,0,0,0,-0.3892,-0.389,-0.3849,-0.3849,-0.385,-0.3905,-0.3905,-0.3906,-0.4082,-0.4087,-0.4092,-0.4096,-0.4147,-0.4145,-0.4142,0,0,0,0,0,0,0,0,0,0,0,0,0,-0.3903,-0.389,-0.3849,-0.3945,-0.3954,-0.3905,-0.3906,-0.3906,-0.4081,-0.4087,-0.4093,-0.4098,-0.4148,-0.4145,-0.4141,-0.4002,0,0,-0.4131,-0.413,0,0,0,0,0,0,0,0,-0.3902,-0.3901,-0.393,-0.3938,-0.3948,-0.3993,-0.394,-0.3938,-0.408,-0.4032,-0.4094,-0.4101,-0.409,-0.4092,-0.4089,-0.4005,-0.4007,-0.4131,-0.4129,-0.4127,-0.4126,0,0,0,0,0,0,0,-0.3901,-0.39,-0.3871,-0.393,-0.3941,-0.3984,-0.3992,-0.3941,-0.4027,-0.4037,-0.405,-0.4055,-0.4096,-0.4092,-0.4092,-0.4008,-0.4131,-0.4128,-0.4126,-0.4124,-0.3816,-0.381,0,0,0,0,0,0,-0.3887,-0.3898,-0.3869,-0.3873,-0.3939,-0.3979,-0.3988,-0.3972,-0.4029,-0.4043,-0.4049,-0.4063,-0.4095,-0.4096,-0.4094,-0.3938,-0.4127,-0.4124,-0.4122,-0.3822,-0.3815,-0.3808,0,0,0,0,0,0,-0.3887,-0.3883,-0.3867,-0.3889,-0.389,-0.3972,-0.3953,-0.397,-0.3967,-0.4038,-0.4054,-0.4029,-0.41,-0.4099,-0.4025,-0.3942,-0.4122,-0.4119,-0.3829,-0.382,-0.3811,-0.3622,0,0,0,0,0,0,-0.3888,-0.3882,-0.383,-0.3886,-0.3888,-0.3796,-0.3948,-0.3967,-0.3961,-0.3979,-0.4023,-0.4036,-0.4104,-0.4029,-0.4022,-0.3941,-0.4117,-0.3837,-0.3825,-0.3814,-0.3636,-0.3607,-0.3583,0,0,0,0,0,-0.3889,-0.3772,-0.3826,-0.3822,-0.3825,-0.3791,-0.3792,-0.3874,-0.3953,-0.3902,-0.3949,-0.4035,-0.3953,-0.402,-0.4013,-0.393,-0.3843,-0.3829,-0.3815,-0.3648,-0.3613,-0.3584,0,0,0,0,0,0,-0.3701,-0.3781,-0.3842,-0.3741,-0.3758,-0.3821,-0.3759,-0.3834,-0.3828,-0.3845,-0.3946,-0.3954,-0.3866,-0.3891,-0.3965,-0.38,-0.3912,-0.3896,-0.3787,-0.3755,-0.3729,-0.3725,-0.4114,0,0,0,0,0,-0.3648,-0.3615,-0.3687,-0.359,-0.3596,-0.3675,-0.3663,-0.3726,-0.3747,-0.3755,-0.3796,-0.3812,-0.3791,-0.3774,-0.3758,-0.3641,-0.3654,-0.358,-0.3554,-0.3532,-0.3517,-0.346,-0.3428,-0.3763,-0.3763,-0.3763,0,0,-0.3537,-0.3577,-0.355,-0.3553,-0.3574,-0.3538,-0.368,-0.3634,-0.3608,-0.3748,-0.3682,-0.3712,-0.3737,-0.3642,-0.3602,-0.366,-0.3428,-0.3514,-0.3496,-0.3493,-0.3442,-0.3411,-0.3382,-0.3753,-0.3755,-0.3757,0,0,-0.3318,-0.3344,-0.3269,-0.3288,-0.3319,-0.3373,-0.3355,-0.3408,-0.3434,-0.337,-0.3475,-0.3445,-0.3405,-0.342,-0.3422,-0.3213,-0.3293,-0.3204,-0.3066,-0.3009,-0.2983,-0.296,-0.2887,-0.286,-0.3189,-0.3189,-0.3188,0,-0.3176,-0.3126,-0.3219,-0.3168,-0.3168,-0.3295,-0.322,-0.3233,-0.3256,-0.3253,-0.3318,-0.3273,-0.3299,-0.321,-0.316,-0.3156,-0.314,-0.3199,-0.2979,-0.2957,-0.2937,-0.2869,-0.2841,-0.3178,-0.3179,-0.318,-0.3181,0,-0.2952,-0.2916,-0.2851,-0.2874,-0.2866,-0.2802,-0.2885,-0.2866,-0.293,-0.2977,-0.2912,-0.2948,-0.2943,-0.2926,-0.2986,-0.2847,-0.2883,-0.2961,-0.3076,-0.2893,-0.2831,-0.2805,-0.3162,-0.3166,-0.317,-0.3172,0,0,-0.2612,-0.2691,-0.2666,-0.268,-0.2725,-0.2699,-0.2642,-0.264,-0.2622,-0.2635,-0.259,-0.2556,-0.2631,-0.2633,-0.2697,-0.2646,-0.2482,-0.2733,-0.2735,-0.2686,-0.2333,-0.2274,-0.2242,-0.2536,-0.2531,-0.2527,-0.2332,0,-0.2406,-0.2316,-0.24,-0.2292,-0.2262,-0.2384,-0.2335,-0.2358,-0.2401,-0.2381,-0.2429,-0.2404,-0.2504,-0.2507,-0.2463,-0.2511,-0.2412,-0.2526,-0.2496,-0.2493,-0.2486,-0.2209,-0.2146,-0.196,-0.2308,-0.2304,-0.2301,0,-0.2152,-0.2157,-0.2047,-0.2105,-0.2095,-0.2049,-0.2056,-0.2035,-0.2064,-0.21,-0.2104,-0.2183,-0.2133,-0.2245,-0.2177,-0.2252,-0.2245,-0.2267,-0.2262,-0.2263,-0.2386,-0.2204,-0.1902,-0.1874,-0.2263,-0.2266,-0.2269,0,-0.1919,-0.1897,-0.183,-0.1838,-0.1902,-0.1867,-0.1892,-0.1927,-0.1922,-0.1927,-0.1925,-0.1923,-0.1922,-0.1919,-0.1996,-0.2071,-0.1919,-0.2037,-0.1948,-0.1946,-0.191,-0.1911,-0.1604,-0.1903,-0.1903,-0.1904,-0.1905,0,-0.168,-0.1608,-0.1727,-0.1685,-0.161,-0.1707,-0.1629,-0.1667,-0.1698,-0.1666,-0.1771,-0.1739,-0.1842,-0.1821,-0.188,-0.1816,-0.1814,-0.1842,-0.1859,-0.1833,-0.183,-0.183,-0.1845,-0.1897,-0.1898,-0.19,-0.1901,0,-0.1405,-0.1482,-0.1417,-0.1485,-0.15,-0.1441,-0.1499,-0.1464,-0.1516,-0.1475,-0.147,-0.1551,-0.1532,-0.1609,-0.1602,-0.1643,-0.1548,-0.1585,-0.1538,-0.155,-0.1457,-0.1466,-0.114,-0.1103,-0.1424,-0.1421,-0.1418,0,-0.1248,-0.1197,-0.126,-0.1248,-0.1268,-0.1246,-0.1243,-0.1337,-0.1329,-0.1361,-0.1321,-0.1312,-0.1309,-0.1273,-0.1331,-0.1327,-0.1366,-0.1252,-0.1366,-0.1343,-0.1366,-0.1369,-0.1365,-0.1228,-0.1224,-0.1221,-0.1218,0,-0.0962,-0.1003,-0.0995,-0.1,-0.0994,-0.1002,-0.1017,-0.1001,-0.1103,-0.1089,-0.1072,-0.107,-0.1066,-0.1055,-0.1064,-0.1089,-0.117,-0.1183,-0.1162,-0.1136,-0.1111,-0.1125,-0.1475,-0.1189,-0.1192,-0.1195,-0.1196,-0.1197,-0.0742,-0.0704,-0.0744,-0.0732,-0.0755,-0.0767,-0.0739,-0.0789,-0.0778,-0.0783,-0.0839,-0.0812,-0.0846,-0.0867,-0.0885,-0.0865,-0.0919,-0.0888,-0.0881,-0.0872,-0.0857,-0.1114,-0.0867,-0.0868,-0.0869,-0.0869,-0.087,0,-0.0463,-0.0496,-0.0485,-0.0505,-0.0496,-0.0576,-0.0598,-0.0585,-0.0561,-0.0586,-0.0583,-0.0565,-0.0557,-0.0615,-0.0615,-0.0588,-0.0625,-0.0584,-0.0588,-0.0593,-0.0808,-0.0827,-0.0554,-0.0554,-0.0554,-0.0555,-0.0555,-0.0555,-0.0317,-0.0258,-0.0304,-0.0257,-0.0291,-0.0267,-0.0273,-0.0286,-0.0308,-0.0284,-0.0279,-0.0318,-0.0357,-0.0361,-0.0357,-0.0375,-0.037,-0.0317,-0.0347,-0.0546,-0.0577,-0.0606,-0.0625,-0.0315,-0.0314,-0.0134,-0.0132,-0.0131]}]]